Voltar ao catálogo

USA 560

AtivoMilitarVLEO
NORAD 65706·PAYLOAD·🇺🇸 United States

Lançado Sep 22, 2025 de Vandenberg Space Force Base

Loading…

Próximas Passagens (próximas 24 horas)

TLE

ObsoletoSource: Mike McCants

Época: Aug 9, 2026, 20:54 UTC

1 65706U 25213C   26221.87091948 0.00000000  00000-0  00000-0 0    09
2 65706  70.0160 252.1616 0004000 248.2268 111.7732 14.96713800    00

Acompanhe USA 560 em tempo real com AllMySat

Download on the App Store